TimeCST,TemperatureF,Dew PointF,Humidity,Sea Level PressureIn,VisibilityMPH,Wind Direction,Wind SpeedMPH,Gust SpeedMPH,PrecipitationIn,Events,Conditions,WindDirDegrees,DateUTC
12:10 AM,44.6,10.4,25,29.90,10.0,SSW,16.1,-,N/A,,Clear,200,2002-01-26 06:10:00
12:31 AM,44.6,10.4,25,29.90,10.0,SSW,17.3,23.0,N/A,,Clear,200,2002-01-26 06:31:00
12:50 AM,42.8,10.4,27,29.90,10.0,SSW,15.0,23.0,N/A,,Clear,200,2002-01-26 06:50:00
1:11 AM,42.8,10.4,27,29.90,10.0,SSW,16.1,-,N/A,,Clear,200,2002-01-26 07:11:00
1:34 AM,42.8,10.4,27,29.91,10.0,SSW,11.5,-,N/A,,Clear,210,2002-01-26 07:34:00
1:50 AM,42.8,10.4,27,29.91,10.0,SSW,12.7,-,N/A,,Clear,210,2002-01-26 07:50:00
2:13 AM,42.8,10.4,27,29.91,10.0,SSW,12.7,-,N/A,,Clear,200,2002-01-26 08:13:00
2:30 AM,42.8,10.4,27,29.91,10.0,SSW,11.5,-,N/A,,Clear,200,2002-01-26 08:30:00
3:11 AM,39.2,12.2,33,29.91,10.0,SSW,10.4,-,N/A,,Clear,200,2002-01-26 09:11:00
3:31 AM,39.2,12.2,33,29.91,10.0,SSW,10.4,-,N/A,,Clear,200,2002-01-26 09:31:00
3:50 AM,39.2,12.2,33,29.91,10.0,South,9.2,-,N/A,,Clear,190,2002-01-26 09:50:00
4:31 AM,37.4,12.2,36,29.90,10.0,South,8.1,-,N/A,,Clear,180,2002-01-26 10:31:00
4:52 AM,37.4,12.2,36,29.90,10.0,South,5.8,-,N/A,,Clear,190,2002-01-26 10:52:00
5:13 AM,35.6,10.4,35,29.90,10.0,South,6.9,-,N/A,,Clear,180,2002-01-26 11:13:00
5:31 AM,33.8,12.2,41,29.91,10.0,SSW,5.8,-,N/A,,Clear,200,2002-01-26 11:31:00
5:50 AM,33.8,12.2,41,29.91,10.0,South,5.8,-,N/A,,Clear,190,2002-01-26 11:50:00
6:13 AM,33.8,12.2,41,29.91,10.0,SE,4.6,-,N/A,,Clear,140,2002-01-26 12:13:00
6:31 AM,33.8,12.2,41,29.91,10.0,SSE,5.8,-,N/A,,Clear,160,2002-01-26 12:31:00
6:50 AM,32.0,12.2,44,29.91,10.0,South,10.4,-,N/A,,Clear,180,2002-01-26 12:50:00
7:31 AM,33.8,14.0,44,29.92,10.0,SSE,6.9,-,N/A,,Clear,160,2002-01-26 13:31:00
7:51 AM,33.8,14.0,44,29.92,10.0,SSE,6.9,-,N/A,,Clear,160,2002-01-26 13:51:00
8:13 AM,33.8,14.0,44,29.93,10.0,South,6.9,-,N/A,,Clear,170,2002-01-26 14:13:00
8:50 AM,37.4,15.8,41,29.93,10.0,South,10.4,-,N/A,,Clear,180,2002-01-26 14:50:00
9:11 AM,39.2,15.8,39,29.93,10.0,South,10.4,-,N/A,,Clear,190,2002-01-26 15:11:00
9:30 AM,41.0,15.8,36,29.93,10.0,SSW,11.5,-,N/A,,Clear,200,2002-01-26 15:30:00
9:51 AM,44.6,15.8,31,29.93,10.0,South,11.5,-,N/A,,Clear,190,2002-01-26 15:51:00
10:10 AM,46.4,17.6,32,29.94,10.0,SSW,12.7,-,N/A,,Clear,210,2002-01-26 16:10:00
10:31 AM,48.2,17.6,30,29.94,10.0,SSW,10.4,-,N/A,,Clear,200,2002-01-26 16:31:00
11:14 AM,51.8,17.6,26,29.94,10.0,South,12.7,-,N/A,,Clear,190,2002-01-26 17:14:00
11:30 AM,53.6,17.6,24,29.93,10.0,South,16.1,-,N/A,,Clear,180,2002-01-26 17:30:00
11:51 AM,53.6,19.4,26,29.92,10.0,South,13.8,-,N/A,,Clear,180,2002-01-26 17:51:00
12:12 PM,57.2,19.4,23,29.90,10.0,South,15.0,-,N/A,,Clear,180,2002-01-26 18:12:00
12:30 PM,57.2,19.4,23,29.89,10.0,South,13.8,-,N/A,,Clear,170,2002-01-26 18:30:00
12:50 PM,60.8,19.4,20,29.88,10.0,South,17.3,20.7,N/A,,Clear,180,2002-01-26 18:50:00
1:11 PM,62.6,19.4,19,29.87,10.0,South,17.3,20.7,N/A,,Clear,190,2002-01-26 19:11:00
1:51 PM,64.4,19.4,18,29.85,10.0,South,15.0,23.0,N/A,,Clear,190,2002-01-26 19:51:00
2:10 PM,64.4,19.4,18,29.84,10.0,South,15.0,-,N/A,,Clear,190,2002-01-26 20:10:00
3:10 PM,66.2,19.4,17,29.83,10.0,South,17.3,24.2,N/A,,Clear,180,2002-01-26 21:10:00
3:32 PM,64.4,19.4,18,29.83,10.0,South,15.0,-,N/A,,Clear,190,2002-01-26 21:32:00
3:50 PM,62.6,19.4,19,29.83,10.0,South,12.7,20.7,N/A,,Clear,180,2002-01-26 21:50:00
4:11 PM,62.6,19.4,19,29.83,10.0,South,11.5,-,N/A,,Clear,170,2002-01-26 22:11:00
4:30 PM,60.8,19.4,20,29.83,10.0,SSE,11.5,-,N/A,,Clear,160,2002-01-26 22:30:00
4:51 PM,60.8,21.2,22,29.82,10.0,South,15.0,-,N/A,,Clear,170,2002-01-26 22:51:00
5:10 PM,60.8,19.4,20,29.81,10.0,South,13.8,-,N/A,,Clear,170,2002-01-26 23:10:00
5:31 PM,60.8,19.4,20,29.81,10.0,South,12.7,-,N/A,,Clear,170,2002-01-26 23:31:00
5:50 PM,60.8,19.4,20,29.81,10.0,SSE,16.1,23.0,N/A,,Clear,160,2002-01-26 23:50:00
6:11 PM,57.2,19.4,23,29.82,10.0,SSE,12.7,18.4,N/A,,Clear,160,2002-01-27 00:11:00
7:11 PM,55.4,19.4,25,29.83,10.0,South,15.0,-,N/A,,Clear,170,2002-01-27 01:11:00
7:30 PM,55.4,19.4,25,29.83,10.0,South,16.1,-,N/A,,Clear,170,2002-01-27 01:30:00
7:51 PM,53.6,19.4,26,29.83,10.0,South,12.7,18.4,N/A,,Clear,170,2002-01-27 01:51:00
8:10 PM,53.6,19.4,26,29.83,10.0,South,15.0,-,N/A,,Clear,170,2002-01-27 02:10:00
8:33 PM,53.6,19.4,26,29.83,10.0,South,15.0,23.0,N/A,,Clear,170,2002-01-27 02:33:00
8:53 PM,51.8,19.4,28,29.83,10.0,South,15.0,-,N/A,,Clear,180,2002-01-27 02:53:00
9:10 PM,51.8,19.4,28,29.82,10.0,South,16.1,21.9,N/A,,Clear,180,2002-01-27 03:10:00
9:31 PM,51.8,19.4,28,29.82,10.0,South,12.7,23.0,N/A,,Clear,180,2002-01-27 03:31:00
9:51 PM,50.0,19.4,30,29.82,10.0,South,13.8,20.7,N/A,,Clear,170,2002-01-27 03:51:00
10:10 PM,50.0,19.4,30,29.83,10.0,South,16.1,21.9,0.65,,Clear,180,2002-01-27 04:10:00
11:11 PM,48.2,21.2,34,29.82,10.0,South,15.0,18.4,N/A,,Clear,170,2002-01-27 05:11:00
11:30 PM,48.2,21.2,34,29.82,10.0,South,15.0,19.6,N/A,,Clear,180,2002-01-27 05:30:00
11:50 PM,48.2,23.0,37,29.82,10.0,South,12.7,-,N/A,,Clear,170,2002-01-27 05:50:00